User: anonymous   Login
Location: Stoke Bliss
(52.2667°N, 2.5167°W)
Time: 15:41:52
(UTC+00:00)
Language:

Cosmos 1295 Rocket - Orbit

View from above orbital plane
View from above orbital plane
View from above satellite
View from above satellite

Ground track
Ground track

The orbit data is extracted from the following two-line orbital elements,

1 12682U 81077B   21135.81513372  .00000032  00000-0  16615-4 0  9992
2 12682  82.9198  27.5499 0032839 298.1741  61.6101 13.78607498999433
Epoch (UTC): 15 May 2021 19:33:47
Eccentricity: 0.0032839
inclination: 82.9198°
perigee height: 945 km
apogee height: 993 km
right ascension of ascending node: 27.5499°
argument of perigee: 298.1741°
revolutions per day: 13.78607498
mean anomaly at epoch: 61.6101°
orbit number at epoch: 99943

The dashed part of the orbit path shows where the satellite is in the earth's shadow,  

DLR